Tracking 19638 objects as of 19-May-2019
HD Live streaming from Space Station
objects crossing your sky now

SL-6 R/B(2)

Track SL-6 R/B(2) now!


NORAD ID: 22241
Int'l Code: 1992-081D
Perigee: 5,486.4 km
Apogee: 34,390.5 km
Inclination: 68.9 °
Period: 707.8 minutes
Semi major axis: 26309 km
RCS: 5.1164 m2 (large)
Launch date: November 25, 1992
Source: Commonwealth of Independent States (former USSR) (CIS)
Launch site: PLESETSK MISSILE AND SPACE COMPLEX (PKMTR)

Note: This is a ROCKET BODY
aabbcc
Your satellite tracking list
Your tracking list is empty




NASA's NSSDC Master Catalog

Two Line Element Set (TLE):
1 22241U 92081D   19135.82847529  .00000698  00000-0  00000+0 0  9997
2 22241  68.9326 174.4082 5493111  93.3298 327.6690  2.03439992196674
Source of the keplerian elements: AFSPC